Time,TemperatureF,DewpointF,PressureIn,WindDirection,WindDirectionDegrees,WindSpeedMPH,WindSpeedGustMPH,Humidity,HourlyPrecipIn,Conditions,Clouds,dailyrainin,SolarRadiationWatts/m^2,SoftwareType,DateUTC
2013-05-25 00:01:00,54.0,34.0,-100.00,NW,317,11.0,27.0,46,0.00,,,0.21,261.000000,,2013-05-25 00:01:00,
2013-05-25 00:12:00,54.0,34.0,-100.00,NW,317,11.0,27.0,46,0.00,,,0.21,261.000000,,2013-05-25 00:12:00,
2013-05-25 00:32:00,50.0,32.0,-100.00,NW,325,9.0,23.0,49,0.00,,,0.12,90.000000,,2013-05-25 00:32:00,
2013-05-25 00:42:00,50.0,32.0,-100.00,NW,325,9.0,23.0,49,0.00,,,0.12,90.000000,,2013-05-25 00:42:00,
2013-05-25 00:52:00,50.0,32.0,-100.00,NW,325,9.0,23.0,49,0.00,,,0.12,90.000000,,2013-05-25 00:52:00,
2013-05-25 01:01:00,50.0,32.0,-100.00,NW,325,9.0,23.0,49,0.00,,,0.12,90.000000,,2013-05-25 01:01:00,
2013-05-25 01:11:00,50.0,32.0,-100.00,NW,325,9.0,23.0,49,0.00,,,0.12,90.000000,,2013-05-25 01:11:00,
2013-05-25 01:32:00,48.0,31.0,-100.00,NW,314,10.0,24.0,51,0.00,,,0.10,3.000000,,2013-05-25 01:32:00,
2013-05-25 01:42:00,48.0,31.0,-100.00,NW,314,10.0,24.0,51,0.00,,,0.10,3.000000,,2013-05-25 01:42:00,
2013-05-25 01:52:00,48.0,31.0,-100.00,NW,314,10.0,24.0,51,0.00,,,0.10,3.000000,,2013-05-25 01:52:00,
2013-05-25 02:02:00,48.0,31.0,-100.00,NW,314,10.0,24.0,51,0.00,,,0.10,3.000000,,2013-05-25 02:02:00,
2013-05-25 02:12:00,48.0,31.0,-100.00,NW,314,10.0,24.0,51,0.00,,,0.10,3.000000,,2013-05-25 02:12:00,
2013-05-25 02:32:00,47.0,30.0,-100.00,NW,316,10.0,20.0,51,0.00,,,0.08,0.000000,,2013-05-25 02:32:00,
2013-05-25 02:42:00,47.0,30.0,-100.00,NW,316,10.0,20.0,51,0.00,,,0.08,0.000000,,2013-05-25 02:42:00,
2013-05-25 02:52:00,47.0,30.0,-100.00,NW,316,10.0,20.0,51,0.00,,,0.08,0.000000,,2013-05-25 02:52:00,
2013-05-25 03:02:00,47.0,30.0,-100.00,NW,316,10.0,20.0,51,0.00,,,0.08,0.000000,,2013-05-25 03:02:00,
2013-05-25 03:11:00,47.0,30.0,-100.00,NW,316,10.0,20.0,51,0.00,,,0.08,0.000000,,2013-05-25 03:11:00,
2013-05-25 03:13:00,47.0,31.0,-100.00,NW,324,12.0,19.0,54,0.00,,,0.00,0.000000,,2013-05-25 03:13:00,
2013-05-25 03:33:00,47.0,31.0,-100.00,NW,324,12.0,19.0,54,0.00,,,0.00,0.000000,,2013-05-25 03:33:00,
2013-05-25 03:43:00,47.0,31.0,-100.00,NW,324,12.0,19.0,54,0.00,,,0.00,0.000000,,2013-05-25 03:43:00,
2013-05-25 03:53:00,47.0,31.0,-100.00,NW,324,12.0,19.0,54,0.00,,,0.00,0.000000,,2013-05-25 03:53:00,
2013-05-25 04:03:00,47.0,31.0,-100.00,NW,324,12.0,19.0,54,0.00,,,0.00,0.000000,,2013-05-25 04:03:00,
2013-05-25 04:33:00,45.0,28.0,-100.00,WNW,302,9.0,22.0,52,0.00,,,0.00,0.000000,,2013-05-25 04:33:00,
2013-05-25 04:43:00,45.0,28.0,-100.00,WNW,302,9.0,22.0,52,0.00,,,0.00,0.000000,,2013-05-25 04:43:00,
2013-05-25 04:53:00,45.0,28.0,-100.00,WNW,302,9.0,22.0,52,0.00,,,0.00,0.000000,,2013-05-25 04:53:00,
2013-05-25 05:02:00,45.0,28.0,-100.00,WNW,302,9.0,22.0,52,0.00,,,0.00,0.000000,,2013-05-25 05:02:00,
2013-05-25 05:12:00,45.0,28.0,-100.00,WNW,302,9.0,22.0,52,0.00,,,0.00,0.000000,,2013-05-25 05:12:00,
2013-05-25 05:32:00,44.0,28.0,-100.00,WNW,298,7.0,19.0,54,0.00,,,0.00,0.000000,,2013-05-25 05:32:00,
2013-05-25 05:43:00,44.0,28.0,-100.00,WNW,298,7.0,19.0,54,0.00,,,0.00,0.000000,,2013-05-25 05:43:00,
2013-05-25 05:52:00,44.0,28.0,-100.00,WNW,298,7.0,19.0,54,0.00,,,0.00,0.000000,,2013-05-25 05:52:00,
2013-05-25 06:02:00,44.0,28.0,-100.00,WNW,298,7.0,19.0,54,0.00,,,0.00,0.000000,,2013-05-25 06:02:00,
2013-05-25 06:12:00,44.0,28.0,-100.00,WNW,298,7.0,19.0,54,0.00,,,0.00,0.000000,,2013-05-25 06:12:00,
2013-05-25 06:32:00,45.0,30.0,-100.00,WNW,301,6.0,13.0,56,0.00,,,0.00,0.000000,,2013-05-25 06:32:00,
2013-05-25 06:42:00,45.0,30.0,-100.00,WNW,301,6.0,13.0,56,0.00,,,0.00,0.000000,,2013-05-25 06:42:00,
2013-05-25 06:52:00,45.0,30.0,-100.00,WNW,301,6.0,13.0,56,0.00,,,0.00,0.000000,,2013-05-25 06:52:00,
2013-05-25 07:02:00,45.0,30.0,-100.00,WNW,301,6.0,13.0,56,0.00,,,0.00,0.000000,,2013-05-25 07:02:00,
2013-05-25 07:11:00,45.0,30.0,-100.00,WNW,301,6.0,13.0,56,0.00,,,0.00,0.000000,,2013-05-25 07:11:00,
2013-05-25 07:32:00,44.0,30.0,-100.00,WNW,297,7.0,12.0,58,0.00,,,0.00,0.000000,,2013-05-25 07:32:00,
2013-05-25 07:42:00,44.0,30.0,-100.00,WNW,297,7.0,12.0,58,0.00,,,0.00,0.000000,,2013-05-25 07:42:00,
2013-05-25 07:52:00,44.0,30.0,-100.00,WNW,297,7.0,12.0,58,0.00,,,0.00,0.000000,,2013-05-25 07:52:00,
2013-05-25 08:02:00,44.0,30.0,-100.00,WNW,297,7.0,12.0,58,0.00,,,0.00,0.000000,,2013-05-25 08:02:00,
2013-05-25 08:11:00,44.0,30.0,-100.00,WNW,297,7.0,12.0,58,0.00,,,0.00,0.000000,,2013-05-25 08:11:00,
2013-05-25 08:32:00,44.0,31.0,-100.00,WNW,296,7.0,15.0,60,0.00,,,0.00,0.000000,,2013-05-25 08:32:00,
2013-05-25 08:42:00,44.0,31.0,-100.00,WNW,296,7.0,15.0,60,0.00,,,0.00,0.000000,,2013-05-25 08:42:00,
2013-05-25 08:52:00,44.0,31.0,-100.00,WNW,296,7.0,15.0,60,0.00,,,0.00,0.000000,,2013-05-25 08:52:00,
2013-05-25 09:02:00,44.0,31.0,-100.00,WNW,296,7.0,15.0,60,0.00,,,0.00,0.000000,,2013-05-25 09:02:00,
2013-05-25 09:11:00,44.0,31.0,-100.00,WNW,296,7.0,15.0,60,0.00,,,0.00,0.000000,,2013-05-25 09:11:00,
2013-05-25 09:33:00,43.0,31.0,-100.00,WNW,292,7.0,14.0,63,0.00,,,0.00,0.000000,,2013-05-25 09:33:00,
2013-05-25 09:43:00,43.0,31.0,-100.00,WNW,292,7.0,14.0,63,0.00,,,0.00,0.000000,,2013-05-25 09:43:00,
2013-05-25 09:53:00,43.0,31.0,-100.00,WNW,292,7.0,14.0,63,0.00,,,0.00,0.000000,,2013-05-25 09:53:00,
2013-05-25 10:03:00,43.0,31.0,-100.00,WNW,292,7.0,14.0,63,0.00,,,0.00,0.000000,,2013-05-25 10:03:00,
2013-05-25 10:12:00,43.0,31.0,-100.00,WNW,292,7.0,14.0,63,0.00,,,0.00,0.000000,,2013-05-25 10:12:00,
2013-05-25 10:33:00,42.0,31.0,-100.00,WNW,300,6.0,17.0,66,0.00,,,0.00,4.000000,,2013-05-25 10:33:00,
2013-05-25 10:42:00,42.0,31.0,-100.00,WNW,300,6.0,17.0,66,0.00,,,0.00,4.000000,,2013-05-25 10:42:00,
2013-05-25 10:52:00,42.0,31.0,-100.00,WNW,300,6.0,17.0,66,0.00,,,0.00,4.000000,,2013-05-25 10:52:00,
2013-05-25 11:03:00,42.0,31.0,-100.00,WNW,300,6.0,17.0,66,0.00,,,0.00,4.000000,,2013-05-25 11:03:00,
2013-05-25 11:12:00,42.0,31.0,-100.00,WNW,300,6.0,17.0,66,0.00,,,0.00,4.000000,,2013-05-25 11:12:00,
2013-05-25 11:32:00,46.0,33.0,-100.00,WNW,298,8.0,14.0,61,0.00,,,0.00,98.000000,,2013-05-25 11:32:00,
2013-05-25 11:42:00,46.0,33.0,-100.00,WNW,298,8.0,14.0,61,0.00,,,0.00,98.000000,,2013-05-25 11:42:00,
2013-05-25 11:52:00,46.0,33.0,-100.00,WNW,298,8.0,14.0,61,0.00,,,0.00,98.000000,,2013-05-25 11:52:00,
2013-05-25 12:02:00,46.0,33.0,-100.00,WNW,298,8.0,14.0,61,0.00,,,0.00,98.000000,,2013-05-25 12:02:00,
2013-05-25 12:12:00,46.0,33.0,-100.00,WNW,298,8.0,14.0,61,0.00,,,0.00,98.000000,,2013-05-25 12:12:00,
2013-05-25 12:32:00,48.0,34.0,-100.00,WNW,291,10.0,18.0,57,0.00,,,0.00,277.000000,,2013-05-25 12:32:00,
2013-05-25 12:42:00,48.0,34.0,-100.00,WNW,291,10.0,18.0,57,0.00,,,0.00,277.000000,,2013-05-25 12:42:00,
2013-05-25 12:52:00,48.0,34.0,-100.00,WNW,291,10.0,18.0,57,0.00,,,0.00,277.000000,,2013-05-25 12:52:00,
2013-05-25 13:02:00,48.0,34.0,-100.00,WNW,291,10.0,18.0,57,0.00,,,0.00,277.000000,,2013-05-25 13:02:00,
2013-05-25 13:11:00,48.0,34.0,-100.00,WNW,291,10.0,18.0,57,0.00,,,0.00,277.000000,,2013-05-25 13:11:00,
2013-05-25 13:32:00,52.0,36.0,-100.00,WNW,298,11.0,19.0,54,0.00,,,0.00,485.000000,,2013-05-25 13:32:00,
2013-05-25 13:42:00,52.0,36.0,-100.00,WNW,298,11.0,19.0,54,0.00,,,0.00,485.000000,,2013-05-25 13:42:00,
2013-05-25 13:52:00,52.0,36.0,-100.00,WNW,298,11.0,19.0,54,0.00,,,0.00,485.000000,,2013-05-25 13:52:00,
2013-05-25 14:02:00,52.0,36.0,-100.00,WNW,298,11.0,19.0,54,0.00,,,0.00,485.000000,,2013-05-25 14:02:00,
2013-05-25 14:11:00,52.0,36.0,-100.00,WNW,298,11.0,19.0,54,0.00,,,0.00,485.000000,,2013-05-25 14:11:00,
2013-05-25 14:32:00,54.0,36.0,-100.00,NW,315,11.0,20.0,50,0.00,,,0.00,653.000000,,2013-05-25 14:32:00,
2013-05-25 14:42:00,54.0,36.0,-100.00,NW,315,11.0,20.0,50,0.00,,,0.00,653.000000,,2013-05-25 14:42:00,
2013-05-25 14:52:00,54.0,36.0,-100.00,NW,315,11.0,20.0,50,0.00,,,0.00,653.000000,,2013-05-25 14:52:00,
2013-05-25 15:01:00,54.0,36.0,-100.00,NW,315,11.0,20.0,50,0.00,,,0.00,653.000000,,2013-05-25 15:01:00,
2013-05-25 15:12:00,54.0,36.0,-100.00,NW,315,11.0,20.0,50,0.00,,,0.00,653.000000,,2013-05-25 15:12:00,
2013-05-25 15:33:00,57.0,36.0,-100.00,NW,317,9.0,20.0,46,0.00,,,0.00,803.000000,,2013-05-25 15:33:00,
2013-05-25 15:43:00,57.0,36.0,-100.00,NW,317,9.0,20.0,46,0.00,,,0.00,803.000000,,2013-05-25 15:43:00,
2013-05-25 15:53:00,57.0,36.0,-100.00,NW,317,9.0,20.0,46,0.00,,,0.00,803.000000,,2013-05-25 15:53:00,
2013-05-25 16:03:00,57.0,36.0,-100.00,NW,317,9.0,20.0,46,0.00,,,0.00,803.000000,,2013-05-25 16:03:00,
2013-05-25 16:12:00,57.0,36.0,-100.00,NW,317,9.0,20.0,46,0.00,,,0.00,803.000000,,2013-05-25 16:12:00,
2013-05-25 16:33:00,61.0,38.0,-100.00,WNW,302,8.0,20.0,43,0.00,,,0.00,870.000000,,2013-05-25 16:33:00,
2013-05-25 16:42:00,61.0,38.0,-100.00,WNW,302,8.0,20.0,43,0.00,,,0.00,870.000000,,2013-05-25 16:42:00,
2013-05-25 16:52:00,61.0,38.0,-100.00,WNW,302,8.0,20.0,43,0.00,,,0.00,870.000000,,2013-05-25 16:52:00,
2013-05-25 17:03:00,61.0,38.0,-100.00,WNW,302,8.0,20.0,43,0.00,,,0.00,870.000000,,2013-05-25 17:03:00,
2013-05-25 17:11:00,61.0,38.0,-100.00,WNW,302,8.0,20.0,43,0.00,,,0.00,870.000000,,2013-05-25 17:11:00,
2013-05-25 17:33:00,62.0,35.0,-100.00,WNW,303,10.0,22.0,37,0.00,,,0.00,956.000000,,2013-05-25 17:33:00,
2013-05-25 17:42:00,62.0,35.0,-100.00,WNW,303,10.0,22.0,37,0.00,,,0.00,956.000000,,2013-05-25 17:42:00,
2013-05-25 17:52:00,62.0,35.0,-100.00,WNW,303,10.0,22.0,37,0.00,,,0.00,956.000000,,2013-05-25 17:52:00,
2013-05-25 18:02:00,62.0,35.0,-100.00,WNW,303,10.0,22.0,37,0.00,,,0.00,956.000000,,2013-05-25 18:02:00,
2013-05-25 18:11:00,62.0,35.0,-100.00,WNW,303,10.0,22.0,37,0.00,,,0.00,956.000000,,2013-05-25 18:11:00,
2013-05-25 18:32:00,63.0,33.0,-100.00,NNW,333,12.0,23.0,33,0.00,,,0.00,961.000000,,2013-05-25 18:32:00,
2013-05-25 18:42:00,63.0,33.0,-100.00,NNW,333,12.0,23.0,33,0.00,,,0.00,961.000000,,2013-05-25 18:42:00,
2013-05-25 18:52:00,63.0,33.0,-100.00,NNW,333,12.0,23.0,33,0.00,,,0.00,961.000000,,2013-05-25 18:52:00,
2013-05-25 19:02:00,63.0,33.0,-100.00,NNW,333,12.0,23.0,33,0.00,,,0.00,961.000000,,2013-05-25 19:02:00,
2013-05-25 19:11:00,63.0,33.0,-100.00,NNW,333,12.0,23.0,33,0.00,,,0.00,961.000000,,2013-05-25 19:11:00,
2013-05-25 19:32:00,64.0,34.0,-100.00,NW,325,13.0,21.0,33,0.00,,,0.00,880.000000,,2013-05-25 19:32:00,
2013-05-25 19:42:00,64.0,34.0,-100.00,NW,325,13.0,21.0,33,0.00,,,0.00,880.000000,,2013-05-25 19:42:00,
2013-05-25 19:52:00,64.0,34.0,-100.00,NW,325,13.0,21.0,33,0.00,,,0.00,880.000000,,2013-05-25 19:52:00,
2013-05-25 20:02:00,64.0,34.0,-100.00,NW,325,13.0,21.0,33,0.00,,,0.00,880.000000,,2013-05-25 20:02:00,
2013-05-25 20:11:00,64.0,34.0,-100.00,NW,325,13.0,21.0,33,0.00,,,0.00,880.000000,,2013-05-25 20:11:00,
2013-05-25 20:32:00,65.0,34.0,-100.00,WNW,301,12.0,26.0,31,0.00,,,0.00,737.000000,,2013-05-25 20:32:00,
2013-05-25 20:42:00,65.0,34.0,-100.00,WNW,301,12.0,26.0,31,0.00,,,0.00,737.000000,,2013-05-25 20:42:00,
2013-05-25 20:52:00,65.0,34.0,-100.00,WNW,301,12.0,26.0,31,0.00,,,0.00,737.000000,,2013-05-25 20:52:00,
2013-05-25 21:02:00,65.0,34.0,-100.00,WNW,301,12.0,26.0,31,0.00,,,0.00,737.000000,,2013-05-25 21:02:00,
2013-05-25 21:11:00,65.0,34.0,-100.00,WNW,301,12.0,26.0,31,0.00,,,0.00,737.000000,,2013-05-25 21:11:00,
2013-05-25 21:13:00,66.0,34.0,-100.00,NW,310,11.0,21.0,31,0.00,,,0.00,652.000000,,2013-05-25 21:13:00,
2013-05-25 21:33:00,66.0,34.0,-100.00,NW,310,11.0,21.0,31,0.00,,,0.00,652.000000,,2013-05-25 21:33:00,
2013-05-25 21:43:00,66.0,34.0,-100.00,NW,310,11.0,21.0,31,0.00,,,0.00,652.000000,,2013-05-25 21:43:00,
2013-05-25 21:53:00,66.0,34.0,-100.00,NW,310,11.0,21.0,31,0.00,,,0.00,652.000000,,2013-05-25 21:53:00,
2013-05-25 22:03:00,66.0,34.0,-100.00,NW,310,11.0,21.0,31,0.00,,,0.00,652.000000,,2013-05-25 22:03:00,
2013-05-25 22:33:00,65.0,34.0,-100.00,WNW,295,11.0,25.0,31,0.00,,,0.00,474.000000,,2013-05-25 22:33:00,
2013-05-25 22:42:00,65.0,34.0,-100.00,WNW,295,11.0,25.0,31,0.00,,,0.00,474.000000,,2013-05-25 22:42:00,
2013-05-25 22:52:00,65.0,34.0,-100.00,WNW,295,11.0,25.0,31,0.00,,,0.00,474.000000,,2013-05-25 22:52:00,
2013-05-25 23:02:00,65.0,34.0,-100.00,WNW,295,11.0,25.0,31,0.00,,,0.00,474.000000,,2013-05-25 23:02:00,
2013-05-25 23:12:00,65.0,34.0,-100.00,WNW,295,11.0,25.0,31,0.00,,,0.00,474.000000,,2013-05-25 23:12:00,
2013-05-25 23:32:00,64.0,32.0,-100.00,NW,315,9.0,21.0,30,0.00,,,0.00,283.000000,,2013-05-25 23:32:00,
2013-05-25 23:42:00,64.0,32.0,-100.00,NW,315,9.0,21.0,30,0.00,,,0.00,283.000000,,2013-05-25 23:42:00,
2013-05-25 23:53:00,64.0,32.0,-100.00,NW,315,9.0,21.0,30,0.00,,,0.00,283.000000,,2013-05-25 23:53:00,